TimeCST,TemperatureF,Dew PointF,Humidity,Sea Level PressureIn,VisibilityMPH,Wind Direction,Wind SpeedMPH,Gust SpeedMPH,PrecipitationIn,Events,Conditions,WindDirDegrees,DateUTC
12:15 AM,18.1,9.1,68,30.55,10.0,North,6.9,-,N/A,,Clear,360,2013-12-07 06:15:00
12:35 AM,17.6,9.5,71,30.56,10.0,North,8.1,-,N/A,,Clear,360,2013-12-07 06:35:00
12:55 AM,17.6,9.3,70,30.56,10.0,North,4.6,-,N/A,,Clear,10,2013-12-07 06:55:00
1:15 AM,16.9,8.8,71,30.56,10.0,North,8.1,-,N/A,,Clear,360,2013-12-07 07:15:00
1:35 AM,17.1,8.6,69,30.55,10.0,North,8.1,-,N/A,,Clear,360,2013-12-07 07:35:00
1:55 AM,16.7,7.7,68,30.55,10.0,North,8.1,-,N/A,,Clear,360,2013-12-07 07:55:00
2:15 AM,16.5,7.7,68,30.54,10.0,North,9.2,-,N/A,,Clear,10,2013-12-07 08:15:00
2:35 AM,16.5,7.3,67,30.55,10.0,North,8.1,-,N/A,,Clear,10,2013-12-07 08:35:00
2:55 AM,16.0,7.2,68,30.55,10.0,North,6.9,-,N/A,,Clear,10,2013-12-07 08:55:00
3:15 AM,15.8,7.3,69,30.55,10.0,North,8.1,-,N/A,,Clear,10,2013-12-07 09:15:00
3:35 AM,15.1,7.3,71,30.55,10.0,North,5.8,-,N/A,,Clear,360,2013-12-07 09:35:00
3:55 AM,14.9,7.2,71,30.56,10.0,North,5.8,-,N/A,,Clear,360,2013-12-07 09:55:00
4:15 AM,14.9,6.8,70,30.55,10.0,North,6.9,-,N/A,,Clear,10,2013-12-07 10:15:00
4:35 AM,14.9,6.8,70,30.56,10.0,North,9.2,-,N/A,,Clear,10,2013-12-07 10:35:00
4:55 AM,14.9,6.6,70,30.55,10.0,North,9.2,-,N/A,,Clear,10,2013-12-07 10:55:00
5:15 AM,14.7,6.4,70,30.55,10.0,NNE,9.2,-,N/A,,Clear,20,2013-12-07 11:15:00
5:35 AM,14.5,6.4,70,30.55,10.0,North,9.2,17.3,N/A,,Clear,10,2013-12-07 11:35:00
6:55 AM,30.2,6.8,37,30.57,10.0,NNE,13.8,-,N/A,,Clear,20,2013-12-07 12:55:00
7:55 AM,14.0,6.8,73,30.57,10.0,NNE,13.8,17.3,N/A,,Clear,20,2013-12-07 13:55:00
8:55 AM,15.8,6.8,68,30.60,10.0,North,9.2,-,N/A,,Clear,10,2013-12-07 14:55:00
9:55 AM,17.6,8.6,68,30.58,10.0,North,11.5,-,N/A,,Clear,360,2013-12-07 15:55:00
10:55 AM,19.4,10.4,68,30.55,10.0,NNE,11.5,17.3,N/A,,Clear,20,2013-12-07 16:55:00
11:55 AM,21.2,12.2,68,30.52,10.0,NNE,8.1,-,N/A,,Clear,30,2013-12-07 17:55:00
12:55 PM,23.0,14.0,68,30.47,10.0,NNE,6.9,-,N/A,,Clear,20,2013-12-07 18:55:00
1:55 PM,23.0,15.8,74,30.43,10.0,North,9.2,-,N/A,,Scattered Clouds,10,2013-12-07 19:55:00
2:55 PM,24.8,15.8,69,30.41,10.0,North,6.9,-,N/A,,Mostly Cloudy,360,2013-12-07 20:55:00
3:55 PM,24.8,17.6,74,30.39,10.0,NNE,9.2,-,N/A,,Scattered Clouds,20,2013-12-07 21:55:00
4:55 PM,23.0,15.8,74,30.38,10.0,NNE,9.2,-,N/A,,Overcast,30,2013-12-07 22:55:00
10:35 PM,24.8,18.0,75,30.31,10.0,Calm,Calm,-,N/A,,Overcast,0,2013-12-08 04:35:00
10:55 PM,24.8,18.0,75,30.30,10.0,Calm,Calm,-,N/A,,Overcast,0,2013-12-08 04:55:00
11:15 PM,24.8,18.3,76,30.28,10.0,Calm,Calm,-,N/A,,Overcast,0,2013-12-08 05:15:00
11:35 PM,24.8,18.5,77,30.27,10.0,East,3.5,-,N/A,,Overcast,90,2013-12-08 05:35:00
11:55 PM,24.8,18.7,78,30.27,10.0,Calm,Calm,-,N/A,,Overcast,0,2013-12-08 05:55:00